Location: Winterland
(47.1574°N, 55.3067°W)
Time: 13:32:31
(UTC+00:00)

Tiangong - Pass Details

Date: 24 August 2022
Orbit: 377 x 382 km, 41.5° (Epoch: 27 September)

Event Time Altitude Azimuth Distance (km) Brightness Sun altitude
Rises 00:17:57 0° 263° (W) 2,241 2.5 -15.9°
Reaches altitude 10° 00:20:27 10° 243° (WSW) 1,385 1.0 -16.2°
Enters shadow 00:22:35 18° 199° (SSW) 1,024 -0.2 -16.5°
